Date String (YYYY-MM-DD hh:mm:ss) UTC,Instrument flags,Ambient pressure (hPa),Sample flow (lpm),Bypass flow (lpm),Sample temperature (°C),Ambient temperature (°C),ASC tube jacket temperature (°C),LED temperature (°C),Box temperature (°C),Sample RH (%),Span deviation,Mass concentration (μg/m³),Mass concentration (μg/m³),Mass concentration (μg/m³)
DateTimeUTC,F1_M11,P_M11,Q1_M11,Q2_M11,T1_M11,T2_M11,T3_M11,T4_M11,T5_M11,U1_M11,ZSPAN_M11,X0_M11,X2_M11,X1_M11
2021-10-30 01:00:00,,0825.2,5.01,0.00,29.8,28.1,00.0,38.8,31.5,07.5,0000.0,0004.25,0000.49,0000.26
2021-10-30 01:01:00,,0825.2,5.00,0.00,29.8,28.3,00.0,38.8,31.5,07.5,0000.0,0004.13,0000.52,0000.28
2021-10-30 01:02:00,,0825.2,5.01,0.00,29.8,28.4,00.0,38.8,31.5,07.5,0000.0,0004.40,0000.52,0000.28
2021-10-30 01:03:00,,0825.2,5.00,0.00,29.8,28.5,00.0,38.8,31.6,07.4,0000.0,0004.38,0000.51,0000.28
2021-10-30 01:04:00,,0825.2,5.00,0.00,29.8,28.6,00.0,38.8,31.6,07.4,0000.0,0004.47,0000.52,0000.28
2021-10-30 01:05:00,,0825.2,5.00,0.00,29.8,28.7,00.0,38.8,31.6,07.4,0000.0,0004.72,0000.54,0000.28
2021-10-30 01:06:00,,0825.2,5.01,0.00,29.9,28.7,00.0,38.8,31.7,07.3,0000.0,0004.68,0000.52,0000.28
2021-10-30 01:07:00,,0825.3,4.99,0.00,29.9,28.8,00.0,38.8,31.7,07.3,0000.0,0004.62,0000.51,0000.28
2021-10-30 01:08:00,,0825.3,5.00,0.00,29.9,28.9,00.0,38.8,31.7,07.3,0000.0,0004.60,0000.50,0000.28
2021-10-30 01:09:00,,0825.3,5.00,0.00,29.9,28.9,00.0,38.8,31.7,07.3,0000.0,0004.62,0000.52,0000.28
2021-10-30 01:10:00,,0825.3,5.00,0.00,29.9,29.0,00.0,38.9,31.8,07.3,0000.0,0003.69,0000.51,0000.28
2021-10-30 01:11:00,,0825.3,5.02,0.00,30.0,29.0,00.0,38.9,31.8,07.3,0000.0,0001.65,0000.47,0000.28
2021-10-30 01:12:00,,0825.3,5.00,0.00,30.0,29.0,00.0,38.9,31.8,07.4,0000.0,0001.52,0000.42,0000.27
2021-10-30 01:13:00,,0825.3,5.00,0.00,30.0,29.1,00.0,38.9,31.8,07.3,0000.0,0001.21,0000.40,0000.26
2021-10-30 01:14:00,,0825.3,4.99,0.00,30.0,29.1,00.0,38.9,31.7,07.3,0000.0,0001.16,0000.39,0000.25
2021-10-30 01:15:00,,0825.3,5.00,0.00,30.0,29.1,00.0,38.9,31.8,07.3,0000.0,0001.05,0000.37,0000.25
2021-10-30 01:16:00,,0825.3,5.01,0.00,30.0,29.1,00.0,38.9,31.8,07.2,0000.0,0001.86,0000.35,0000.25
2021-10-30 01:17:00,,0825.3,5.00,0.00,30.0,29.1,00.0,39.0,31.9,07.2,0000.0,0002.00,0000.35,0000.24
2021-10-30 01:18:00,,0825.3,5.00,0.00,30.1,29.1,00.0,39.0,31.8,07.2,0000.0,0001.99,0000.34,0000.24
2021-10-30 01:19:00,,0825.3,5.01,0.00,30.1,29.1,00.0,39.0,31.9,07.1,0000.0,0001.98,0000.34,0000.24
2021-10-30 01:20:00,,0825.3,4.99,0.00,30.1,29.1,00.0,39.0,31.9,07.1,0000.0,0001.94,0000.30,0000.23
2021-10-30 01:21:00,,0825.4,5.00,0.00,30.1,29.1,00.0,39.0,31.9,07.1,0000.0,0001.88,0000.27,0000.22
2021-10-30 01:22:00,,0825.3,5.01,0.00,30.1,29.2,00.0,39.0,31.9,07.1,0000.0,0001.85,0000.26,0000.21
2021-10-30 01:23:00,,0825.3,5.01,0.00,30.1,29.2,00.0,39.1,31.9,07.2,0000.0,0001.81,0000.25,0000.21
2021-10-30 01:24:00,,0825.3,4.98,0.00,30.2,29.2,00.0,39.1,32.0,07.2,0000.0,0001.74,0000.25,0000.21
2021-10-30 01:25:00,,0825.4,5.00,0.00,30.2,29.2,00.0,39.1,32.0,07.2,0000.0,0001.74,0000.24,0000.21
2021-10-30 01:26:00,,0825.3,5.00,0.00,30.2,29.3,00.0,39.1,32.0,07.2,0000.0,0001.71,0000.23,0000.21
2021-10-30 01:27:00,,0825.3,5.00,0.00,30.2,29.2,00.0,39.1,32.0,07.2,0000.0,0000.72,0000.23,0000.21
2021-10-30 01:28:00,,0825.3,4.98,0.00,30.2,29.3,00.0,39.1,32.0,07.2,0000.0,0000.83,0000.23,0000.21
2021-10-30 01:29:00,,0825.3,5.00,0.00,30.2,29.3,00.0,39.2,32.0,07.2,0000.0,0000.98,0000.26,0000.22
2021-10-30 01:30:00,,0825.3,5.01,0.00,30.2,28.3,00.0,39.2,31.8,07.2,0000.0,0001.00,0000.27,0000.23
2021-10-30 01:31:00,,0825.3,4.99,0.00,30.1,26.3,00.0,39.1,31.5,07.3,0000.0,0001.09,0000.29,0000.23
2021-10-30 01:32:00,,0825.3,5.00,0.00,30.0,26.1,00.0,39.1,31.4,07.3,0000.0,0001.19,0000.31,0000.24
2021-10-30 01:33:00,,0825.3,5.00,0.00,29.9,26.5,00.0,39.0,31.3,07.4,0000.0,0001.24,0000.33,0000.25
2021-10-30 01:34:00,,0825.2,5.00,0.00,29.8,26.9,00.0,39.0,31.3,07.4,0000.0,0001.29,0000.35,0000.26
2021-10-30 01:35:00,,0825.2,5.01,0.00,29.8,27.3,00.0,38.9,31.4,07.4,0000.0,0001.56,0000.38,0000.27
2021-10-30 01:36:00,,0825.2,5.00,0.00,29.8,27.6,00.0,38.9,31.4,07.4,0000.0,0001.64,0000.39,0000.28
2021-10-30 01:37:00,,0825.3,5.00,0.00,29.8,27.9,00.0,38.9,31.4,07.5,0000.0,0001.69,0000.40,0000.28
2021-10-30 01:38:00,,0825.2,5.00,0.00,29.8,28.1,00.0,38.9,31.5,07.5,0000.0,0001.87,0000.43,0000.29
2021-10-30 01:39:00,,0825.2,5.00,0.00,29.8,28.2,00.0,38.9,31.5,07.4,0000.0,0001.54,0000.44,0000.29
2021-10-30 01:40:00,,0825.2,5.00,0.00,29.8,28.4,00.0,38.8,31.5,07.5,0000.0,0001.41,0000.43,0000.28
2021-10-30 01:41:00,,0825.2,5.00,0.00,29.8,28.5,00.0,38.9,31.5,07.5,0000.0,0001.40,0000.43,0000.28
2021-10-30 01:42:00,,0825.2,5.01,0.00,29.8,28.5,00.0,38.8,31.5,07.5,0000.0,0001.34,0000.42,0000.29
2021-10-30 01:43:00,,0825.2,4.99,0.00,29.8,28.6,00.0,38.8,31.5,07.5,0000.0,0001.26,0000.41,0000.29
2021-10-30 01:44:00,,0825.2,5.00,0.00,29.8,28.7,00.0,38.9,31.6,07.5,0000.0,0001.21,0000.40,0000.30
2021-10-30 01:45:00,,0825.2,5.00,0.00,29.8,28.7,00.0,38.9,31.6,07.4,0000.0,0001.22,0000.41,0000.30
2021-10-30 01:46:00,,0825.2,4.99,0.00,29.8,28.7,00.0,38.9,31.6,07.4,0000.0,0000.99,0000.39,0000.30
2021-10-30 01:47:00,,0825.2,5.01,0.00,29.9,28.8,00.0,38.9,31.6,07.4,0000.0,0000.91,0000.39,0000.29
2021-10-30 01:48:00,,0825.2,5.01,0.00,29.9,28.8,00.0,38.9,31.7,07.4,0000.0,0000.85,0000.39,0000.30
2021-10-30 01:49:00,,0825.2,4.99,0.00,29.9,28.9,00.0,38.9,31.7,07.4,0000.0,0000.64,0000.38,0000.29
2021-10-30 01:50:00,,0825.2,4.99,0.00,29.9,28.9,00.0,38.9,31.6,07.5,0000.0,0000.54,0000.37,0000.30
2021-10-30 01:51:00,,0825.2,5.00,0.00,29.9,28.9,00.0,38.9,31.7,07.5,0000.0,0000.57,0000.40,0000.31
2021-10-30 01:52:00,,0825.2,5.01,0.00,29.9,28.9,00.0,38.9,31.7,07.5,0000.0,0000.61,0000.42,0000.33
2021-10-30 01:53:00,,0825.1,4.99,0.00,29.9,29.0,00.0,38.9,31.7,07.5,0000.0,0001.42,0000.48,0000.35
2021-10-30 01:54:00,,0825.1,4.99,0.00,29.9,29.0,00.0,38.9,31.7,07.5,0000.0,0001.76,0000.51,0000.38
2021-10-30 01:55:00,,0825.1,5.00,0.00,29.9,29.0,00.0,38.9,31.7,07.5,0000.0,0001.78,0000.53,0000.40
2021-10-30 01:56:00,,0825.2,5.00,0.00,30.0,29.0,00.0,38.9,31.7,07.5,0000.0,0001.80,0000.55,0000.42
2021-10-30 01:57:00,,0825.1,5.01,0.00,30.0,29.0,00.0,38.9,31.7,07.5,0000.0,0001.93,0000.60,0000.45
2021-10-30 01:58:00,,0825.1,5.00,0.00,30.0,28.9,00.0,38.9,31.7,07.5,0000.0,0002.03,0000.66,0000.49
2021-10-30 01:59:00,,0825.1,5.01,0.00,30.0,28.9,00.0,39.0,31.7,07.5,0000.0,0002.74,0000.70,0000.52
